Tracking 31032 objects as of 13-Jul-2025
HD Live streaming from Space Station
objects crossing your sky now

CZ-6A DEB

Track CZ-6A DEB now!
10-day predictions


NORAD ID: 56679
Int'l Code: 2022-151AHF
Perigee: 816.1 km
Apogee: 966.3 km
Inclination: 99.0 °
Period: 102.7 minutes
Semi major axis: 7262 km
RCS: Unknown
Launch date: November 11, 2022
Source: People's Republic of China (PRC)
Launch site: Taiyaun Space Center, China (TSC)

Note: This is SATELLITE DEBRIS
Your satellite tracking list
Your tracking list is empty




NASA's NSSDC Master Catalog

Two Line Element Set (TLE):
1 56679U 22151AHF 25194.24628221  .00000193  00000-0  14626-3 0  9997
2 56679  98.9540 196.4274 0103389 290.9056  68.1067 14.02821988113611
Source of the keplerian elements: AFSPC